Home > Weather > Ettelbruck > Past weeks

Flag for Luxembourg Past Weather in Ettelbruck, Luxembourg — Yesterday and Last 2 Weeks

Now
71 °F

Partly sunny.


Feels Like: 76 °F
Forecast: 53 / 69 °F
Wind: 3 mph from Southwest

Location: Luxembourg / Luxembourg

Current Time: Jul 30, 2016 at 3:16:21 PM

Latest Report: Jul 30, 2016 at 2:00 PM


Visibility: 22 mi

Pressure: 29.93 "Hg

Humidity: 58%

Dew Point: 56 °F

Location of EttelbruckLocation

Past Weather in Ettelbruck — Graph

°F

Ettelbruck Temperature Yesterday

Maximum temperature yesterday: 74 °F (at 4:00 PM)
Minimum temperature yesterday: 60 °F (at 5:00 AM)
Average temperature yesterday: 67 °F

High & Low Weather Summary for the Past Weeks

 TemperatureHumidityPressure
High92 °F (Jul 20, 5:00 PM)97% (Jul 21, 5:00 AM)30.33 "Hg (Jul 21, 5:00 AM)
Low53 °F (Jul 16, 5:00 AM)25% (Jul 20, 4:00 PM)29.87 "Hg (Jul 20, 5:00 PM)
Average69 °F73%30.08 "Hg
* Reported Jul 15 1:00 PM — Jul 30 1:00 PM, Ettelbruck, Weather by CustomWeather, © 2016

Note: Actual official high and low records may vary slightly from our data, if they occured in-between our weather recording intervals... More about our weather records

Advertising

Ettelbruck Weather History for the Previous 24 Hours

Scroll right to see more
 ConditionsComfort  
Time TempWeatherWind HumidityBarometerVisibility
1:00 PM
Sat, Jul 30
69 °FOvercast.2 mph59%29.94 "Hg22 mi
12:00 PM68 °FPartly sunny.2 mph61%29.94 "Hg19 mi
11:00 AM68 °FPartly sunny.3 mph61%29.94 "Hg19 mi
10:00 AM67 °FPartly sunny.3 mph62%29.95 "Hg19 mi
9:00 AM65 °FPartly sunny.3 mph69%29.95 "Hg19 mi
8:00 AM61 °FPartly sunny.2 mph90%29.96 "Hg16 mi
7:00 AM60 °FPartly sunny.2 mph93%29.95 "Hg18 mi
6:00 AM60 °FOvercast.2 mph94%29.95 "Hg12 mi
5:00 AM61 °FOvercast.2 mph92%29.94 "Hg12 mi
4:00 AM60 °FPassing clouds.2 mph92%29.95 "Hg25 mi
3:00 AM62 °FClear.3 mph89%29.94 "Hg28 mi
2:00 AM63 °FPassing clouds.3 mph87%29.94 "Hg31 mi
1:00 AM65 °FOvercast.3 mph83%29.94 "Hg19 mi
12:00 AM64 °FPassing clouds.3 mph83%29.94 "Hg19 mi
11:00 PM
Fri, Jul 29
66 °FOvercast.3 mph79%29.94 "Hg19 mi
10:00 PM66 °FPassing clouds.3 mph76%29.93 "Hg19 mi
9:00 PM70 °FPartly sunny.3 mph67%29.92 "Hg31 mi
8:00 PM71 °FScattered clouds.6 mph64%29.91 "Hg22 mi
7:00 PM73 °FPartly sunny.6 mph62%29.91 "Hg22 mi
6:00 PM72 °FPartly sunny.6 mph61%29.91 "Hg22 mi
5:00 PM73 °FPartly sunny.8 mph61%29.91 "Hg22 mi
4:00 PM74 °FPartly sunny.8 mph56%29.91 "Hg22 mi
3:00 PM73 °FPartly sunny.7 mph60%29.92 "Hg19 mi
Weather by CustomWeather, © 2016

See weather overviewHow to use our weather pages